Skip Page Navigation
NASA JPL Caltech
NASA Logo - Jet Propulsion Laboratory + View the NASA Portal
+ Center for Near-Earth Object Studies
JPL Home Earth Solar System Stars & Galaxies Technology
JPL Solar System Dynamics
BODIES ORBITS EPHEMERIDES TOOLS PHYSICAL DATA DISCOVERY FAQ SITE MAP
IMPORTANT: The SSD Announcement email list is now available. Major changes are coming in the near future, including possible hostname and/or URL changes. To be notified of such changes, subscribe to this email list.

Please visit this page for more details.


JPL Small-Body Database Browser
Search: [ help ]  
4014 Heizman (1979 SG10)
Classification: Outer Main-belt Asteroid          SPK-ID: 2004014
Ephemeris | Orbit Diagram | Orbital Elements | Mission Design | Physical Parameters | Discovery Circumstances | Close-Approach Data ]

[ show orbit diagram ]
Orbital Elements at Epoch 2459000.5 (2020-May-31.0) TDB
Reference: JPL 34 (heliocentric ecliptic J2000)
 Element Value Uncertainty (1-sigma)   Units 
e .03179250949096392 3.8846e-08  
a 3.421538695024826 2.1123e-08 au
q 3.312759393589549 1.3653e-07 au
i 1.106998539580149 3.8525e-06 deg
node 270.6350931083776 0.00022495 deg
peri 106.3171488222068 0.00023338 deg
M 156.4095352015601 6.2542e-05 deg
tp 2457996.135542673354
(2017-Aug-30.63554267)
0.0004 TDB
period 2311.695410204033
6.33
2.1407e-05
5.861e-08
d
yr
n .1557298588780024 1.4421e-09 deg/d
Q 3.530317996460103 2.1795e-08 au
  Orbit Determination Parameters
   # obs. used (total)      2248  
   data-arc span      25521 days (69.87 yr)  
   first obs. used      1950-03-21  
   last obs. used      2020-02-03  
   planetary ephem.      DE431  
   SB-pert. ephem.      SB431-N16  
   condition code      0  
   norm. resid. RMS      .47407  
   source      ORB  
   producer      Otto Matic  
   solution date      2020-Feb-22 17:02:05  

Additional Information
 Earth MOID = 2.31365 au 
 Jupiter MOID = 1.6502 au 
 T_jup = 3.141 
[ show covariance matrix ]

Ephemeris | Orbit Diagram | Orbital Elements | Mission Design | Physical Parameters | Discovery Circumstances | Close-Approach Data ]

Physical Parameter Table
Parameter Symbol Value Units Sigma Reference Notes
absolute magnitude H 12.3   n/a MPO337284  
diameter diameter 36.83 km 6.2 IRAS-A-FPA-3-RDR-IMPS-V6.0 IRAS observations used: 2
rotation period rot_per 9.36 h n/a LCDB (Rev. 2019-August); Warner et al., 2009 Result based on less than full coverage, so that the period may be wrong by 30 percent or so.
Published Reference List:
[Chang, C.-K.; Ip, W.-H.; Cheng, Y.-C.; Ngeow, C.-C.; et al. (2014) Astrophys. J. 788, A17.]
geometric albedo albedo 0.0206   0.009 IRAS-A-FPA-3-RDR-IMPS-V6.0 IRAS observations used: 2

4014 Heizman (1979 SG10)          Discovered 1979-Sep-28 by Chernykh, N. at Nauchnyj
Reference: DISCOVERY.DBLast Updated: 2003-08-29

[ show close-approach data ]
Alternate Designations
 1979 SG10 = 1977 KS1 = 1979 US3 = 1979 VL 
Ephemeris | Orbit Diagram | Orbital Elements | Mission Design | Physical Parameters | Discovery Circumstances | Close-Approach Data ]
ABOUT SSD CREDITS/AWARDS PRIVACY/COPYRIGHT GLOSSARY LINKS
FirstGov 2020-Mar-30 17:48 UT
(server date/time)  
NASA Home Page
Site Manager:   Ryan S. Park
Webmaster  Alan B. Chamberlin